• In Belarus
  • List of Countries
  • For 7 days
  • Water Temperature
  • Satellite Maps
  • Weather Map
  • Weather Widgets
  • user-avatar
    Login

    Hourly Weather Bregenz

    Today, 23 January, Tuesday

    Time Temperature Precipitation Wind Pressure Humidity
    00:00 +1°C° 0.5 mm 2 mps 645 mmHg 98%
    01:00 +1°C° 0 mm 2 mps 646 mmHg 98%
    02:00 +1°C° 0.3 mm 2 mps 646 mmHg 97%
    03:00 -1°C° 0.3 mm 2 mps 647 mmHg 97%
    04:00 -1°C° 0.3 mm 2 mps 647 mmHg 97%
    05:00 -1°C° 0.2 mm 2 mps 647 mmHg 97%
    06:00 -2°C° 0.2 mm 2 mps 648 mmHg 97%
    07:00 -2°C° 0 mm 2 mps 648 mmHg 97%
    08:00 -2°C° 0.1 mm 2 mps 648 mmHg 96%
    09:00 +1°C° 0.1 mm 1 mps 649 mmHg 96%
    10:00 +1°C° 0.1 mm 1 mps 649 mmHg 95%
    11:00 +1°C° 0 mm 1 mps 649 mmHg 93%
    12:00 +2°C° 0 mm 1 mps 650 mmHg 91%
    13:00 +3°C° 0 mm 1 mps 650 mmHg 89%
    14:00 +2°C° 0 mm 1 mps 650 mmHg 89%
    15:00 +2°C° 0 mm 1 mps 650 mmHg 88%
    16:00 +2°C° 0 mm 1 mps 650 mmHg 88%
    17:00 +1°C° 0 mm 1 mps 650 mmHg 85%
    18:00 -2°C° 0 mm 2 mps 650 mmHg 82%
    19:00 -3°C° 0 mm 2 mps 650 mmHg 79%
    20:00 -4°C° 0 mm 2 mps 650 mmHg 76%
    21:00 -4°C° 0 mm 2 mps 650 mmHg 74%
    22:00 -4°C° 0 mm 2 mps 650 mmHg 71%
    23:00 -4°C° 0 mm 2 mps 650 mmHg 70%

    Tomorrow, 24 January, Wednesday

    Time Temperature Precipitation Wind Pressure Humidity
    00:00 -4°C° 0 mm 2 mps 650 mmHg 69%
    01:00 -4°C° 0 mm 2 mps 651 mmHg 68%
    02:00 -4°C° 0 mm 2 mps 650 mmHg 67%
    03:00 -4°C° 0 mm 2 mps 650 mmHg 66%
    04:00 -4°C° 0 mm 2 mps 650 mmHg 66%
    05:00 -4°C° 0 mm 2 mps 650 mmHg 65%
    06:00 -4°C° 0 mm 2 mps 650 mmHg 64%
    07:00 -4°C° 0 mm 2 mps 650 mmHg 63%
    08:00 -3°C° 0 mm 2 mps 650 mmHg 64%
    09:00 -2°C° 0 mm 2 mps 650 mmHg 65%
    10:00 -1°C° 0 mm 2 mps 650 mmHg 66%
    11:00 +2°C° 0 mm 2 mps 650 mmHg 70%
    12:00 +3°C° 0 mm 2 mps 650 mmHg 73%
    13:00 +5°C° 0 mm 1 mps 650 mmHg 77%
    14:00 +5°C° 0 mm 1 mps 650 mmHg 77%
    15:00 +4°C° 0 mm 1 mps 649 mmHg 77%
    16:00 +4°C° 0 mm 1 mps 649 mmHg 77%
    17:00 +2°C° 0 mm 2 mps 649 mmHg 75%
    18:00 -1°C° 0 mm 2 mps 649 mmHg 74%
    19:00 -2°C° 0 mm 2 mps 648 mmHg 72%
    20:00 -2°C° 0 mm 3 mps 648 mmHg 71%
    21:00 -2°C° 0 mm 3 mps 648 mmHg 70%
    22:00 -4°C° 0 mm 3 mps 648 mmHg 69%
    23:00 -4°C° 0 mm 3 mps 648 mmHg 69%

    Day after tomorrow, 25 January, Thursday

    Time Temperature Precipitation Wind Pressure Humidity
    00:00 -4°C° 0 mm 3 mps 648 mmHg 69%
    01:00 -4°C° 0 mm 3 mps 648 mmHg 69%
    02:00 -4°C° 0 mm 3 mps 647 mmHg 69%
    03:00 -4°C° 0 mm 3 mps 647 mmHg 69%
    04:00 -3°C° 0 mm 2 mps 647 mmHg 70%
    05:00 -3°C° 0 mm 2 mps 647 mmHg 71%
    06:00 -3°C° 0 mm 2 mps 646 mmHg 71%
    07:00 -3°C° 0 mm 2 mps 646 mmHg 72%
    08:00 -2°C° 0 mm 2 mps 646 mmHg 72%
    09:00 -1°C° 0 mm 2 mps 646 mmHg 73%
    10:00 +1°C° 0 mm 2 mps 646 mmHg 74%
    11:00 +2°C° 0 mm 2 mps 646 mmHg 75%
    12:00 +3°C° 0 mm 2 mps 645 mmHg 76%
    13:00 +4°C° 0 mm 2 mps 645 mmHg 77%
    14:00 +3°C° 0 mm 2 mps 645 mmHg 78%
    15:00 +3°C° 0 mm 2 mps 644 mmHg 79%
    16:00 +3°C° 0 mm 2 mps 644 mmHg 80%
    17:00 +2°C° 0 mm 2 mps 644 mmHg 80%
    18:00 +1°C° 0 mm 2 mps 643 mmHg 80%
    19:00 -1°C° 0 mm 2 mps 643 mmHg 81%
    20:00 -1°C° 0 mm 2 mps 643 mmHg 81%
    21:00 -1°C° 0 mm 2 mps 643 mmHg 81%
    22:00 -1°C° 0 mm 2 mps 643 mmHg 81%
    23:00 -1°C° 0 mm 2 mps 642 mmHg 81%

    26 January, Friday

    Time Temperature Precipitation Wind Pressure Humidity
    00:00 -1°C° 0 mm 2 mps 642 mmHg 81%
    01:00 -1°C° 0 mm 2 mps 642 mmHg 81%
    02:00 -2°C° 0 mm 2 mps 642 mmHg 82%
    03:00 -2°C° 0 mm 2 mps 641 mmHg 83%
    04:00 -2°C° 0 mm 2 mps 641 mmHg 83%
    05:00 -2°C° 0.1 mm 2 mps 642 mmHg 85%
    06:00 -2°C° 0.1 mm 2 mps 642 mmHg 87%
    07:00 0°C° 0.1 mm 1 mps 642 mmHg 89%
    08:00 0°C° 0.5 mm 1 mps 642 mmHg 90%
    09:00 0°C° 0.5 mm 1 mps 643 mmHg 92%
    10:00 0°C° 0.5 mm 1 mps 643 mmHg 93%
    11:00 0°C° 0.8 mm 1 mps 643 mmHg 94%
    12:00 -2°C° 0.8 mm 2 mps 644 mmHg 94%
    13:00 -2°C° 0.8 mm 2 mps 644 mmHg 95%
    14:00 -2°C° 1.5 mm 2 mps 644 mmHg 95%
    15:00 0°C° 1.5 mm 1 mps 644 mmHg 96%
    16:00 -1°C° 1.5 mm 1 mps 644 mmHg 96%
    17:00 -1°C° 1.2 mm 1 mps 645 mmHg 96%
    18:00 -2°C° 1.2 mm 1 mps 645 mmHg 96%
    19:00 -2°C° 1.2 mm 1 mps 645 mmHg 96%
    20:00 -2°C° 0.7 mm 1 mps 646 mmHg 96%
    21:00 -2°C° 0.7 mm 1 mps 646 mmHg 96%
    22:00 -2°C° 0.7 mm 1 mps 646 mmHg 96%
    23:00 -2°C° 0.6 mm 1 mps 646 mmHg 96%

    27 January, Saturday

    Time Temperature Precipitation Wind Pressure Humidity
    00:00 -3°C° 0.6 mm 1 mps 647 mmHg 96%
    01:00 -3°C° 0.6 mm 1 mps 647 mmHg 96%
    02:00 -3°C° 0.4 mm 1 mps 647 mmHg 96%
    03:00 -3°C° 0.4 mm 1 mps 647 mmHg 96%
    04:00 -3°C° 0.4 mm 1 mps 647 mmHg 96%
    05:00 -3°C° 0.3 mm 1 mps 647 mmHg 96%
    06:00 -3°C° 0.3 mm 1 mps 647 mmHg 96%
    07:00 -4°C° 0.3 mm 1 mps 648 mmHg 96%
    08:00 -3°C° 0.2 mm 1 mps 648 mmHg 95%
    09:00 -3°C° 0.2 mm 1 mps 649 mmHg 94%
    10:00 -2°C° 0.2 mm 1 mps 649 mmHg 93%
    11:00 -1°C° 0 mm 1 mps 649 mmHg 93%
    12:00 -3°C° 0 mm 2 mps 650 mmHg 92%
    13:00 -2°C° 0 mm 2 mps 650 mmHg 91%
    14:00 -2°C° 0 mm 2 mps 650 mmHg 92%
    15:00 -2°C° 0 mm 2 mps 650 mmHg 92%
    16:00 -2°C° 0 mm 2 mps 650 mmHg 93%
    17:00 -1°C° 0 mm 1 mps 650 mmHg 93%
    18:00 -2°C° 0 mm 1 mps 651 mmHg 94%
    19:00 -2°C° 0 mm 1 mps 651 mmHg 94%
    20:00 -3°C° 0 mm 1 mps 651 mmHg 92%
    21:00 -3°C° 0 mm 1 mps 651 mmHg 90%
    22:00 -4°C° 0 mm 1 mps 652 mmHg 88%
    23:00 -4°C° 0 mm 1 mps 652 mmHg 87%

    28 January, Sunday

    Time Temperature Precipitation Wind Pressure Humidity
    00:00 -4°C° 0 mm 1 mps 652 mmHg 86%
    01:00 -4°C° 0 mm 1 mps 652 mmHg 85%
    02:00 -4°C° 0 mm 1 mps 652 mmHg 85%
    03:00 -4°C° 0 mm 1 mps 652 mmHg 84%
    04:00 -4°C° 0 mm 1 mps 652 mmHg 84%
    05:00 -4°C° 0 mm 1 mps 653 mmHg 84%
    06:00 -4°C° 0 mm 1 mps 653 mmHg 84%
    07:00 -4°C° 0 mm 1 mps 653 mmHg 83%
    08:00 -3°C° 0 mm 1 mps 654 mmHg 83%
    09:00 -1°C° 0 mm 1 mps 654 mmHg 83%
    10:00 0°C° 0 mm 1 mps 654 mmHg 82%
    11:00 +1°C° 0 mm 1 mps 655 mmHg 84%
    12:00 +2°C° 0 mm 1 mps 655 mmHg 86%
    13:00 +3°C° 0 mm 1 mps 655 mmHg 88%
    14:00 +2°C° 0 mm 1 mps 655 mmHg 88%
    15:00 +2°C° 0 mm 1 mps 655 mmHg 89%
    16:00 +2°C° 0 mm 1 mps 655 mmHg 89%
    17:00 +1°C° 0 mm 1 mps 655 mmHg 86%
    18:00 0°C° 0 mm 1 mps 655 mmHg 83%
    19:00 -1°C° 0 mm 1 mps 655 mmHg 80%
    20:00 -1°C° 0 mm 1 mps 655 mmHg 79%
    21:00 -1°C° 0 mm 1 mps 655 mmHg 77%
    22:00 -1°C° 0 mm 1 mps 655 mmHg 76%
    23:00 -1°C° 0 mm 1 mps 655 mmHg 76%
    Show more